Time,TemperatureF,DewpointF,PressureIn,WindDirection,WindDirectionDegrees,WindSpeedMPH,WindSpeedGustMPH,Humidity,HourlyPrecipIn,Conditions,Clouds,dailyrainin,SoftwareType,DateUTC
2013-04-14 00:00:00,50.8,44.5,30.07,WSW,240,0.0,1.0,79,0.00,,---,0.00,VWS V14.01,2013-04-14 04:00:00,
2013-04-14 00:05:00,50.7,44.8,30.07,WSW,240,0.0,1.0,80,0.00,,---,0.00,VWS V14.01,2013-04-14 04:05:00,
2013-04-14 00:10:00,50.5,44.2,30.06,WSW,240,0.0,0.0,79,0.00,,---,0.00,VWS V14.01,2013-04-14 04:10:00,
2013-04-14 00:15:00,50.2,44.3,30.06,WSW,240,0.0,0.0,80,0.00,,---,0.00,VWS V14.01,2013-04-14 04:15:00,
2013-04-14 00:20:00,50.0,44.1,30.07,WSW,240,0.0,0.0,80,0.00,,---,0.00,VWS V14.01,2013-04-14 04:20:00,
2013-04-14 00:25:00,49.7,43.8,30.07,WSW,240,1.0,1.0,80,0.00,,---,0.00,VWS V14.01,2013-04-14 04:25:00,
2013-04-14 00:30:00,49.5,43.9,30.07,WSW,240,0.0,1.0,81,0.00,,---,0.00,VWS V14.01,2013-04-14 04:30:00,
2013-04-14 00:35:00,49.4,44.1,30.07,WSW,240,0.0,1.0,82,0.00,,---,0.00,VWS V14.01,2013-04-14 04:35:00,
2013-04-14 00:40:00,49.3,44.7,30.07,WSW,240,0.0,0.0,84,0.00,,---,0.00,VWS V14.01,2013-04-14 04:40:00,
2013-04-14 00:45:00,49.4,45.1,30.07,WSW,240,0.0,1.0,85,0.00,,---,0.00,VWS V14.01,2013-04-14 04:45:00,
2013-04-14 00:50:00,49.4,45.1,30.07,WSW,240,0.0,1.0,85,0.00,,---,0.00,VWS V14.01,2013-04-14 04:50:00,
2013-04-14 00:55:00,49.4,45.4,30.07,WSW,240,0.0,1.0,86,0.00,,---,0.00,VWS V14.01,2013-04-14 04:55:00,
2013-04-14 01:00:00,49.3,45.6,30.07,WSW,240,0.0,1.0,87,0.00,,---,0.00,VWS V14.01,2013-04-14 05:00:00,
2013-04-14 01:05:00,49.3,45.6,30.07,WSW,240,0.0,1.0,87,0.00,,---,0.00,VWS V14.01,2013-04-14 05:05:00,
2013-04-14 01:10:00,49.3,45.9,30.07,WSW,240,0.0,0.0,88,0.00,,---,0.00,VWS V14.01,2013-04-14 05:10:00,
2013-04-14 01:15:00,49.2,45.8,30.07,WSW,240,0.0,0.0,88,0.00,,---,0.00,VWS V14.01,2013-04-14 05:15:00,
2013-04-14 01:20:00,49.2,45.8,30.07,WSW,240,0.0,0.0,88,0.00,,---,0.00,VWS V14.01,2013-04-14 05:20:00,
2013-04-14 01:25:00,49.0,45.6,30.07,WSW,240,0.0,0.0,88,0.00,,---,0.00,VWS V14.01,2013-04-14 05:25:00,
2013-04-14 01:30:00,48.8,45.4,30.07,WSW,240,0.0,0.0,88,0.00,,---,0.00,VWS V14.01,2013-04-14 05:30:00,
2013-04-14 01:34:00,48.6,45.2,30.07,WSW,240,0.0,0.0,88,0.00,,---,0.00,VWS V14.01,2013-04-14 05:34:00,
2013-04-14 01:39:00,48.3,45.2,30.07,WSW,240,0.0,0.0,89,0.00,,---,0.00,VWS V14.01,2013-04-14 05:39:00,
2013-04-14 01:44:00,48.2,45.1,30.07,WSW,240,0.0,0.0,89,0.00,,---,0.00,VWS V14.01,2013-04-14 05:44:00,
2013-04-14 01:49:00,48.0,44.9,30.07,WSW,240,0.0,0.0,89,0.00,,---,0.00,VWS V14.01,2013-04-14 05:49:00,
2013-04-14 01:54:00,47.8,44.7,30.07,WSW,240,0.0,0.0,89,0.00,,---,0.00,VWS V14.01,2013-04-14 05:54:00,
2013-04-14 01:59:00,47.7,44.6,30.07,WSW,240,0.0,0.0,89,0.00,,---,0.00,VWS V14.01,2013-04-14 05:59:00,
2013-04-14 02:04:00,47.5,44.4,30.06,WSW,240,0.0,0.0,89,0.00,,---,0.00,VWS V14.01,2013-04-14 06:04:00,
2013-04-14 02:09:00,47.4,44.3,30.07,WSW,240,0.0,0.0,89,0.00,,---,0.00,VWS V14.01,2013-04-14 06:09:00,
2013-04-14 02:14:00,47.2,44.1,30.06,WSW,240,2.0,2.0,89,0.00,,---,0.00,VWS V14.01,2013-04-14 06:14:00,
2013-04-14 02:19:00,47.0,43.6,30.06,WSW,240,0.0,2.0,88,0.00,,---,0.00,VWS V14.01,2013-04-14 06:19:00,
2013-04-14 02:24:00,47.0,43.6,30.06,WSW,240,0.0,2.0,88,0.00,,---,0.00,VWS V14.01,2013-04-14 06:24:00,
2013-04-14 02:29:00,46.9,43.8,30.06,WSW,240,1.0,2.0,89,0.00,,---,0.00,VWS V14.01,2013-04-14 06:29:00,
2013-04-14 02:34:00,46.8,43.7,30.06,WSW,240,0.0,2.0,89,0.00,,---,0.00,VWS V14.01,2013-04-14 06:34:00,
2013-04-14 02:39:00,46.7,43.6,30.05,WSW,240,0.0,0.0,89,0.00,,---,0.00,VWS V14.01,2013-04-14 06:39:00,
2013-04-14 02:44:00,46.6,43.8,30.05,WSW,240,0.0,1.0,90,0.00,,---,0.00,VWS V14.01,2013-04-14 06:44:00,
2013-04-14 02:49:00,46.6,43.5,30.05,WSW,240,0.0,1.0,89,0.00,,---,0.00,VWS V14.01,2013-04-14 06:49:00,
2013-04-14 02:54:00,46.4,43.6,30.05,WSW,240,0.0,1.0,90,0.00,,---,0.00,VWS V14.01,2013-04-14 06:54:00,
2013-04-14 02:59:00,46.3,43.5,30.05,WSW,240,0.0,1.0,90,0.00,,---,0.00,VWS V14.01,2013-04-14 06:59:00,
2013-04-14 03:04:00,46.1,43.3,30.05,WSW,240,1.0,1.0,90,0.00,,---,0.00,VWS V14.01,2013-04-14 07:04:00,
2013-04-14 03:09:00,46.0,43.2,30.05,WSW,240,0.0,0.0,90,0.00,,---,0.00,VWS V14.01,2013-04-14 07:09:00,
2013-04-14 03:14:00,46.0,43.2,30.04,WSW,240,1.0,1.0,90,0.00,,---,0.00,VWS V14.01,2013-04-14 07:14:00,
2013-04-14 03:19:00,45.8,43.0,30.04,WSW,240,0.0,1.0,90,0.00,,---,0.00,VWS V14.01,2013-04-14 07:19:00,
2013-04-14 03:24:00,45.8,43.3,30.04,WSW,240,1.0,1.0,91,0.00,,---,0.00,VWS V14.01,2013-04-14 07:24:00,
2013-04-14 03:29:00,45.7,43.2,30.04,WSW,240,1.0,1.0,91,0.00,,---,0.00,VWS V14.01,2013-04-14 07:29:00,
2013-04-14 03:34:00,45.7,43.2,30.03,WSW,240,0.0,1.0,91,0.00,,---,0.00,VWS V14.01,2013-04-14 07:34:00,
2013-04-14 03:39:00,45.6,43.1,30.03,WSW,240,0.0,1.0,91,0.00,,---,0.00,VWS V14.01,2013-04-14 07:39:00,
2013-04-14 03:44:00,45.5,43.0,30.03,WSW,240,0.0,1.0,91,0.00,,---,0.00,VWS V14.01,2013-04-14 07:44:00,
2013-04-14 03:49:00,45.5,43.0,30.03,WSW,240,0.0,1.0,91,0.00,,---,0.00,VWS V14.01,2013-04-14 07:49:00,
2013-04-14 03:54:00,45.3,42.5,30.02,WSW,240,0.0,1.0,90,0.00,,---,0.00,VWS V14.01,2013-04-14 07:54:00,
2013-04-14 03:59:00,45.1,42.3,30.02,WSW,240,0.0,1.0,90,0.00,,---,0.00,VWS V14.01,2013-04-14 07:59:00,
2013-04-14 04:04:00,45.0,42.2,30.02,WSW,240,0.0,1.0,90,0.00,,---,0.00,VWS V14.01,2013-04-14 08:04:00,
2013-04-14 04:09:00,44.9,42.4,30.02,WSW,240,0.0,1.0,91,0.00,,---,0.00,VWS V14.01,2013-04-14 08:09:00,
2013-04-14 04:14:00,44.9,42.4,30.03,WSW,240,0.0,1.0,91,0.00,,---,0.00,VWS V14.01,2013-04-14 08:14:00,
2013-04-14 04:19:00,44.8,42.3,30.03,WSW,240,0.0,1.0,91,0.00,,---,0.00,VWS V14.01,2013-04-14 08:19:00,
2013-04-14 04:24:00,44.7,42.2,30.03,WSW,240,0.0,1.0,91,0.00,,---,0.00,VWS V14.01,2013-04-14 08:24:00,
2013-04-14 04:29:00,44.6,42.1,30.03,WSW,240,0.0,1.0,91,0.00,,---,0.00,VWS V14.01,2013-04-14 08:29:00,
2013-04-14 04:34:00,44.6,42.1,30.03,WSW,240,0.0,1.0,91,0.00,,---,0.00,VWS V14.01,2013-04-14 08:34:00,
2013-04-14 04:39:00,44.5,42.0,30.03,WSW,240,0.0,1.0,91,0.00,,---,0.00,VWS V14.01,2013-04-14 08:39:00,
2013-04-14 04:44:00,44.4,42.2,30.03,WSW,240,1.0,1.0,92,0.00,,---,0.00,VWS V14.01,2013-04-14 08:44:00,
2013-04-14 04:49:00,44.3,41.8,30.03,WSW,240,0.0,1.0,91,0.00,,---,0.00,VWS V14.01,2013-04-14 08:49:00,
2013-04-14 04:54:00,44.3,41.8,30.03,WSW,240,0.0,1.0,91,0.00,,---,0.00,VWS V14.01,2013-04-14 08:54:00,
2013-04-14 04:59:00,44.2,42.0,30.04,WSW,240,1.0,1.0,92,0.00,,---,0.00,VWS V14.01,2013-04-14 08:59:00,
2013-04-14 05:04:00,44.3,42.1,30.04,WSW,240,0.0,1.0,92,0.00,,---,0.00,VWS V14.01,2013-04-14 09:04:00,
2013-04-14 05:09:00,44.4,42.2,30.04,WSW,240,1.0,1.0,92,0.00,,---,0.00,VWS V14.01,2013-04-14 09:09:00,
2013-04-14 05:14:00,44.4,42.2,30.04,WSW,240,0.0,1.0,92,0.00,,---,0.00,VWS V14.01,2013-04-14 09:14:00,
2013-04-14 05:19:00,44.4,41.9,30.04,WSW,240,0.0,1.0,91,0.00,,---,0.00,VWS V14.01,2013-04-14 09:19:00,
2013-04-14 05:24:00,44.4,42.2,30.04,WSW,240,0.0,1.0,92,0.00,,---,0.00,VWS V14.01,2013-04-14 09:24:00,
2013-04-14 05:29:00,44.4,42.2,30.03,WSW,240,0.0,1.0,92,0.00,,---,0.00,VWS V14.01,2013-04-14 09:29:00,
2013-04-14 05:34:00,44.5,42.3,30.03,WSW,240,0.0,1.0,92,0.00,,---,0.00,VWS V14.01,2013-04-14 09:34:00,
2013-04-14 05:39:00,44.5,42.3,30.03,WSW,240,0.0,0.0,92,0.00,,---,0.00,VWS V14.01,2013-04-14 09:39:00,
2013-04-14 05:44:00,44.5,42.3,30.03,WSW,240,1.0,1.0,92,0.00,,---,0.00,VWS V14.01,2013-04-14 09:44:00,
2013-04-14 05:49:00,44.6,42.4,30.02,WSW,240,0.0,1.0,92,0.00,,---,0.00,VWS V14.01,2013-04-14 09:49:00,
2013-04-14 05:54:00,44.7,42.5,30.03,WSW,240,1.0,1.0,92,0.00,,---,0.00,VWS V14.01,2013-04-14 09:54:00,
2013-04-14 05:59:00,44.7,42.5,30.03,WSW,240,1.0,1.0,92,0.00,,---,0.00,VWS V14.01,2013-04-14 09:59:00,
2013-04-14 06:04:00,44.8,42.6,30.03,WSW,240,0.0,1.0,92,0.00,,---,0.00,VWS V14.01,2013-04-14 10:04:00,
2013-04-14 06:09:00,44.9,42.7,30.04,WSW,240,0.0,1.0,92,0.00,,---,0.00,VWS V14.01,2013-04-14 10:09:00,
2013-04-14 06:14:00,45.0,42.8,30.04,WSW,240,0.0,1.0,92,0.00,,---,0.00,VWS V14.01,2013-04-14 10:14:00,
2013-04-14 06:19:00,45.1,42.9,30.05,WSW,240,0.0,1.0,92,0.00,,---,0.00,VWS V14.01,2013-04-14 10:19:00,
2013-04-14 06:24:00,45.2,42.7,30.05,WSW,240,0.0,1.0,91,0.00,,---,0.00,VWS V14.01,2013-04-14 10:24:00,
2013-04-14 06:29:00,45.4,43.2,30.05,WSW,240,0.0,1.0,92,0.00,,---,0.00,VWS V14.01,2013-04-14 10:29:00,
2013-04-14 06:34:00,45.6,43.4,30.05,WSW,240,0.0,1.0,92,0.00,,---,0.00,VWS V14.01,2013-04-14 10:34:00,
2013-04-14 06:39:00,45.8,43.3,30.06,WSW,240,0.0,0.0,91,0.00,,---,0.00,VWS V14.01,2013-04-14 10:39:00,
2013-04-14 06:44:00,45.9,43.4,30.06,WSW,240,0.0,0.0,91,0.00,,---,0.00,VWS V14.01,2013-04-14 10:44:00,
2013-04-14 06:49:00,46.1,43.6,30.06,WSW,240,0.0,0.0,91,0.00,,---,0.00,VWS V14.01,2013-04-14 10:49:00,
2013-04-14 06:54:00,46.2,43.7,30.06,WSW,240,0.0,0.0,91,0.00,,---,0.00,VWS V14.01,2013-04-14 10:54:00,
2013-04-14 06:59:00,46.3,43.8,30.06,WSW,240,0.0,0.0,91,0.00,,---,0.00,VWS V14.01,2013-04-14 10:59:00,
2013-04-14 07:04:00,46.4,43.9,30.06,WSW,240,1.0,1.0,91,0.00,,---,0.00,VWS V14.01,2013-04-14 11:04:00,
2013-04-14 07:09:00,46.5,44.0,30.07,WSW,240,0.0,1.0,91,0.00,,---,0.00,VWS V14.01,2013-04-14 11:09:00,
2013-04-14 07:14:00,46.5,43.7,30.07,WSW,240,0.0,1.0,90,0.00,,---,0.00,VWS V14.01,2013-04-14 11:14:00,
2013-04-14 07:19:00,46.6,43.8,30.07,WSW,240,0.0,1.0,90,0.00,,---,0.00,VWS V14.01,2013-04-14 11:19:00,
2013-04-14 07:24:00,46.7,44.2,30.07,WSW,240,0.0,1.0,91,0.00,,---,0.00,VWS V14.01,2013-04-14 11:24:00,
2013-04-14 07:29:00,46.7,43.9,30.07,WSW,240,0.0,1.0,90,0.00,,---,0.00,VWS V14.01,2013-04-14 11:29:00,
2013-04-14 07:34:00,46.8,44.3,30.07,WSW,240,1.0,1.0,91,0.00,,---,0.00,VWS V14.01,2013-04-14 11:34:00,
2013-04-14 07:39:00,46.9,44.4,30.06,NW,310,0.0,1.0,91,0.00,,---,0.00,VWS V14.01,2013-04-14 11:39:00,
2013-04-14 07:44:00,47.0,44.5,30.06,NW,310,1.0,1.0,91,0.00,,---,0.00,VWS V14.01,2013-04-14 11:44:00,
2013-04-14 07:49:00,47.1,44.3,30.06,SW,221,0.0,1.0,90,0.00,,---,0.00,VWS V14.01,2013-04-14 11:49:00,
2013-04-14 07:54:00,47.3,44.5,30.06,WNW,296,0.0,1.0,90,0.00,,---,0.00,VWS V14.01,2013-04-14 11:54:00,
2013-04-14 07:59:00,47.6,44.8,30.06,WNW,296,1.0,1.0,90,0.00,,---,0.00,VWS V14.01,2013-04-14 11:59:00,
2013-04-14 08:04:00,47.8,45.0,30.06,WNW,296,0.0,2.0,90,0.00,,---,0.00,VWS V14.01,2013-04-14 12:04:00,
2013-04-14 08:09:00,48.0,45.2,30.06,WNW,296,0.0,1.0,90,0.00,,---,0.00,VWS V14.01,2013-04-14 12:09:00,
2013-04-14 08:14:00,48.3,45.5,30.06,WNW,295,0.0,1.0,90,0.00,,---,0.00,VWS V14.01,2013-04-14 12:14:00,
2013-04-14 08:19:00,48.7,45.9,30.07,WNW,296,0.0,1.0,90,0.00,,---,0.00,VWS V14.01,2013-04-14 12:19:00,
2013-04-14 08:24:00,49.0,45.9,30.07,WNW,295,1.0,1.0,89,0.00,,---,0.00,VWS V14.01,2013-04-14 12:24:00,
2013-04-14 08:29:00,49.4,46.0,30.07,WNW,296,0.0,1.0,88,0.00,,---,0.00,VWS V14.01,2013-04-14 12:29:00,
2013-04-14 08:34:00,49.7,46.0,30.07,WNW,286,1.0,2.0,87,0.00,,---,0.00,VWS V14.01,2013-04-14 12:34:00,
2013-04-14 08:39:00,50.1,45.8,30.07,SW,236,1.0,2.0,85,0.00,,---,0.00,VWS V14.01,2013-04-14 12:39:00,
2013-04-14 08:44:00,50.5,46.2,30.06,SW,236,2.0,3.0,85,0.00,,---,0.00,VWS V14.01,2013-04-14 12:44:00,
2013-04-14 08:49:00,50.8,45.5,30.06,SSW,196,2.0,3.0,82,0.00,,---,0.00,VWS V14.01,2013-04-14 12:49:00,
2013-04-14 08:54:00,51.2,45.9,30.06,WSW,252,2.0,3.0,82,0.00,,---,0.00,VWS V14.01,2013-04-14 12:54:00,
2013-04-14 08:59:00,51.6,45.0,30.06,WSW,240,0.0,5.0,78,0.00,,---,0.00,VWS V14.01,2013-04-14 12:59:00,
2013-04-14 09:04:00,52.0,45.7,30.06,WSW,249,1.0,5.0,79,0.00,,---,0.00,VWS V14.01,2013-04-14 13:04:00,
2013-04-14 09:09:00,52.4,45.4,30.06,SW,233,0.0,4.0,77,0.00,,---,0.00,VWS V14.01,2013-04-14 13:09:00,
2013-04-14 09:14:00,52.8,45.8,30.06,WSW,248,1.0,4.0,77,0.00,,---,0.00,VWS V14.01,2013-04-14 13:14:00,
2013-04-14 09:19:00,53.1,46.1,30.05,West,264,0.0,4.0,77,0.00,,---,0.00,VWS V14.01,2013-04-14 13:19:00,
2013-04-14 09:24:00,53.5,46.5,30.06,WSW,240,1.0,4.0,77,0.00,,---,0.00,VWS V14.01,2013-04-14 13:24:00,
2013-04-14 09:29:00,53.9,46.5,30.06,SW,236,1.0,4.0,76,0.00,,---,0.00,VWS V14.01,2013-04-14 13:29:00,
2013-04-14 09:34:00,54.3,46.9,30.06,WSW,250,1.0,4.0,76,0.00,,---,0.00,VWS V14.01,2013-04-14 13:34:00,
2013-04-14 09:39:00,54.8,46.7,30.06,WSW,244,2.0,4.0,74,0.00,,---,0.00,VWS V14.01,2013-04-14 13:39:00,
2013-04-14 09:44:00,55.2,46.7,30.06,WSW,253,2.0,4.0,73,0.00,,---,0.00,VWS V14.01,2013-04-14 13:44:00,
2013-04-14 09:49:00,55.7,48.3,30.06,WSW,253,0.0,4.0,76,0.00,,---,0.00,VWS V14.01,2013-04-14 13:49:00,
2013-04-14 09:54:00,56.1,46.8,30.06,West,273,2.0,4.0,71,0.00,,---,0.00,VWS V14.01,2013-04-14 13:54:00,
2013-04-14 09:59:00,56.4,47.1,30.06,West,259,2.0,4.0,71,0.00,,---,0.00,VWS V14.01,2013-04-14 13:59:00,
2013-04-14 10:04:00,56.7,47.0,30.06,WSW,243,1.0,4.0,70,0.00,,---,0.00,VWS V14.01,2013-04-14 14:04:00,
2013-04-14 10:09:00,57.0,47.3,30.06,WSW,246,3.0,4.0,70,0.00,,---,0.00,VWS V14.01,2013-04-14 14:09:00,
2013-04-14 10:14:00,57.3,47.2,30.05,WSW,244,2.0,4.0,69,0.00,,---,0.00,VWS V14.01,2013-04-14 14:14:00,
2013-04-14 10:19:00,57.5,47.0,30.05,WSW,250,2.0,4.0,68,0.00,,---,0.00,VWS V14.01,2013-04-14 14:19:00,
2013-04-14 10:23:00,57.7,46.8,30.05,WSW,241,1.0,4.0,67,0.00,,---,0.00,VWS V14.01,2013-04-14 14:23:00,
2013-04-14 10:28:00,58.0,47.1,30.05,West,259,1.0,4.0,67,0.00,,---,0.00,VWS V14.01,2013-04-14 14:28:00,
2013-04-14 10:33:00,58.3,47.4,30.05,West,269,3.0,4.0,67,0.00,,---,0.00,VWS V14.01,2013-04-14 14:33:00,
2013-04-14 10:38:00,58.6,47.3,30.05,West,263,3.0,3.0,66,0.00,,---,0.00,VWS V14.01,2013-04-14 14:38:00,
2013-04-14 10:43:00,59.0,49.2,30.05,WSW,248,1.0,3.0,70,0.00,,---,0.00,VWS V14.01,2013-04-14 14:43:00,
2013-04-14 10:48:00,59.0,47.7,30.04,WSW,244,1.0,3.0,66,0.00,,---,0.00,VWS V14.01,2013-04-14 14:48:00,
2013-04-14 10:53:00,59.3,48.0,30.04,South,190,2.0,3.0,66,0.00,,---,0.00,VWS V14.01,2013-04-14 14:53:00,
2013-04-14 10:58:00,59.4,48.0,30.04,WSW,252,1.0,3.0,66,0.00,,---,0.00,VWS V14.01,2013-04-14 14:58:00,
2013-04-14 11:03:00,59.6,47.4,30.04,WSW,242,3.0,4.0,64,0.00,,---,0.00,VWS V14.01,2013-04-14 15:03:00,
2013-04-14 11:08:00,59.6,47.0,30.04,WSW,245,2.0,2.0,63,0.00,,---,0.00,VWS V14.01,2013-04-14 15:08:00,
2013-04-14 11:13:00,59.8,46.8,30.05,West,262,1.0,2.0,62,0.00,,---,0.00,VWS V14.01,2013-04-14 15:13:00,
2013-04-14 11:18:00,60.1,46.6,30.05,West,269,2.0,3.0,61,0.00,,---,0.00,VWS V14.01,2013-04-14 15:18:00,
2013-04-14 11:23:00,60.3,45.9,30.05,West,269,0.0,3.0,59,0.00,,---,0.00,VWS V14.01,2013-04-14 15:23:00,
2013-04-14 11:28:00,60.5,46.1,30.06,West,269,0.0,3.0,59,0.00,,---,0.00,VWS V14.01,2013-04-14 15:28:00,
2013-04-14 11:33:00,60.7,48.5,30.05,NW,307,0.0,3.0,64,0.00,,---,0.00,VWS V14.01,2013-04-14 15:33:00,
2013-04-14 11:38:00,60.9,48.7,30.06,NW,307,1.0,1.0,64,0.00,,---,0.00,VWS V14.01,2013-04-14 15:38:00,
2013-04-14 11:43:00,61.1,48.4,30.06,NW,307,0.0,1.0,63,0.00,,---,0.00,VWS V14.01,2013-04-14 15:43:00,
2013-04-14 11:48:00,61.2,48.9,30.07,WNW,297,1.0,3.0,64,0.00,,---,0.00,VWS V14.01,2013-04-14 15:48:00,
2013-04-14 11:53:00,61.4,47.8,30.06,East,101,0.0,3.0,61,0.00,,---,0.00,VWS V14.01,2013-04-14 15:53:00,
2013-04-14 11:58:00,61.6,48.5,30.06,NNE,24,0.0,3.0,62,0.00,,---,0.00,VWS V14.01,2013-04-14 15:58:00,
2013-04-14 12:03:00,61.8,46.9,30.06,NE,55,1.0,3.0,58,0.00,,---,0.00,VWS V14.01,2013-04-14 16:03:00,
2013-04-14 12:08:00,62.0,48.4,30.06,NE,55,1.0,2.0,61,0.00,,---,0.00,VWS V14.01,2013-04-14 16:08:00,
2013-04-14 12:13:00,62.2,47.7,30.06,NE,35,0.0,2.0,59,0.00,,---,0.00,VWS V14.01,2013-04-14 16:13:00,
2013-04-14 12:18:00,62.4,47.9,30.06,NE,50,1.0,2.0,59,0.00,,---,0.00,VWS V14.01,2013-04-14 16:18:00,
2013-04-14 12:23:00,62.7,47.7,30.05,NE,49,0.0,2.0,58,0.00,,---,0.00,VWS V14.01,2013-04-14 16:23:00,
2013-04-14 12:28:00,63.0,49.8,30.05,NE,50,0.0,2.0,62,0.00,,---,0.00,VWS V14.01,2013-04-14 16:28:00,
2013-04-14 12:33:00,63.5,48.9,30.05,NNE,33,0.0,2.0,59,0.00,,---,0.00,VWS V14.01,2013-04-14 16:33:00,
2013-04-14 12:38:00,63.8,50.1,30.05,NNE,33,0.0,1.0,61,0.00,,---,0.00,VWS V14.01,2013-04-14 16:38:00,
2013-04-14 12:43:00,64.0,48.5,30.04,NNE,33,1.0,1.0,57,0.00,,---,0.00,VWS V14.01,2013-04-14 16:43:00,
2013-04-14 12:48:00,64.0,47.5,30.04,North,355,0.0,3.0,55,0.00,,---,0.00,VWS V14.01,2013-04-14 16:48:00,
2013-04-14 12:53:00,63.9,48.8,30.03,North,355,0.0,3.0,58,0.00,,---,0.00,VWS V14.01,2013-04-14 16:53:00,
2013-04-14 12:58:00,64.0,50.3,30.03,North,355,1.0,3.0,61,0.00,,---,0.00,VWS V14.01,2013-04-14 16:58:00,
2013-04-14 13:03:00,64.0,50.3,30.03,NNW,345,1.0,3.0,61,0.00,,---,0.00,VWS V14.01,2013-04-14 17:03:00,
2013-04-14 13:08:00,63.9,49.3,30.02,WNW,300,1.0,1.0,59,0.00,,---,0.00,VWS V14.01,2013-04-14 17:08:00,
2013-04-14 13:13:00,63.9,50.2,30.02,WNW,300,1.0,2.0,61,0.00,,---,0.00,VWS V14.01,2013-04-14 17:13:00,
2013-04-14 13:18:00,63.8,49.7,30.03,WNW,300,0.0,2.0,60,0.00,,---,0.00,VWS V14.01,2013-04-14 17:18:00,
2013-04-14 13:23:00,63.7,50.0,30.03,WNW,299,0.0,2.0,61,0.00,,---,0.00,VWS V14.01,2013-04-14 17:23:00,
2013-04-14 13:28:00,63.5,50.7,30.03,WNW,300,0.0,2.0,63,0.00,,---,0.00,VWS V14.01,2013-04-14 17:28:00,
2013-04-14 13:33:00,63.3,50.1,30.03,WNW,300,0.0,2.0,62,0.00,,---,0.00,VWS V14.01,2013-04-14 17:33:00,
2013-04-14 13:38:00,63.3,50.5,30.03,NW,315,0.0,2.0,63,0.00,,---,0.00,VWS V14.01,2013-04-14 17:38:00,
2013-04-14 13:43:00,63.3,50.5,30.03,NW,310,2.0,2.0,63,0.00,,---,0.00,VWS V14.01,2013-04-14 17:43:00,
2013-04-14 13:48:00,63.3,51.3,30.03,WSW,257,1.0,3.0,65,0.00,,---,0.00,VWS V14.01,2013-04-14 17:48:00,
2013-04-14 13:53:00,63.3,50.5,30.03,West,259,1.0,3.0,63,0.00,,---,0.00,VWS V14.01,2013-04-14 17:53:00,
2013-04-14 13:58:00,63.1,51.2,30.03,West,260,1.0,3.0,65,0.00,,---,0.00,VWS V14.01,2013-04-14 17:58:00,
2013-04-14 14:03:00,63.0,51.1,30.03,West,260,0.0,3.0,65,0.00,,---,0.00,VWS V14.01,2013-04-14 18:03:00,
2013-04-14 14:08:00,62.9,50.1,30.03,West,260,0.0,1.0,63,0.00,,---,0.00,VWS V14.01,2013-04-14 18:08:00,
2013-04-14 14:13:00,62.8,49.6,30.03,West,260,0.0,1.0,62,0.00,,---,0.00,VWS V14.01,2013-04-14 18:13:00,
2013-04-14 14:18:00,62.7,49.5,30.04,West,260,1.0,1.0,62,0.00,,---,0.00,VWS V14.01,2013-04-14 18:18:00,
2013-04-14 14:23:00,62.6,51.1,30.04,West,260,1.0,1.0,66,0.00,,---,0.00,VWS V14.01,2013-04-14 18:23:00,
2013-04-14 14:28:00,62.5,50.6,30.04,NE,45,1.0,2.0,65,0.00,,---,0.00,VWS V14.01,2013-04-14 18:28:00,
2013-04-14 14:33:00,62.4,50.1,30.04,East,84,1.0,3.0,64,0.00,,---,0.00,VWS V14.01,2013-04-14 18:33:00,
2013-04-14 14:38:00,62.4,50.1,30.05,East,88,1.0,3.0,64,0.00,,---,0.00,VWS V14.01,2013-04-14 18:38:00,
2013-04-14 14:43:00,62.3,49.6,30.05,East,94,2.0,4.0,63,0.00,,---,0.00,VWS V14.01,2013-04-14 18:43:00,
2013-04-14 14:48:00,62.3,51.2,30.05,East,92,0.0,4.0,67,0.00,,---,0.00,VWS V14.01,2013-04-14 18:48:00,
2013-04-14 14:53:00,62.2,50.7,30.05,SSE,149,1.0,4.0,66,0.00,,---,0.00,VWS V14.01,2013-04-14 18:53:00,
2013-04-14 14:58:00,61.9,51.2,30.05,SE,146,0.0,4.0,68,0.00,,---,0.00,VWS V14.01,2013-04-14 18:58:00,
2013-04-14 15:03:00,61.6,51.0,30.06,NW,323,1.0,4.0,68,0.00,,---,0.00,VWS V14.01,2013-04-14 19:03:00,
2013-04-14 15:08:00,61.3,51.8,30.06,WSW,237,1.0,3.0,71,0.00,,---,0.00,VWS V14.01,2013-04-14 19:08:00,
2013-04-14 15:13:00,61.1,52.4,30.06,SSW,202,2.0,3.0,73,0.00,,---,0.00,VWS V14.01,2013-04-14 19:13:00,
2013-04-14 15:18:00,60.6,51.9,30.06,East,100,0.0,4.0,73,0.00,,---,0.00,VWS V14.01,2013-04-14 19:18:00,
2013-04-14 15:23:00,60.2,52.3,30.05,South,178,1.0,4.0,75,0.00,,---,0.00,VWS V14.01,2013-04-14 19:23:00,
2013-04-14 15:28:00,59.7,52.1,30.06,ESE,111,1.0,5.0,76,0.00,,---,0.00,VWS V14.01,2013-04-14 19:28:00,
2013-04-14 15:33:00,59.5,53.0,30.06,ESE,121,1.0,7.0,79,0.00,,---,0.00,VWS V14.01,2013-04-14 19:33:00,
2013-04-14 15:38:00,59.1,52.6,30.05,SSE,164,0.0,2.0,79,0.01,,---,0.01,VWS V14.01,2013-04-14 19:38:00,
2013-04-14 15:43:00,59.0,53.8,30.05,SSE,159,1.0,3.0,83,0.01,,---,0.01,VWS V14.01,2013-04-14 19:43:00,
2013-04-14 15:48:00,59.0,53.5,30.05,NE,52,0.0,3.0,82,0.01,,---,0.01,VWS V14.01,2013-04-14 19:48:00,
2013-04-14 15:53:00,59.0,52.8,30.04,SE,132,5.0,5.0,80,0.01,,---,0.01,VWS V14.01,2013-04-14 19:53:00,
2013-04-14 15:58:00,59.0,53.5,30.04,SW,220,0.0,5.0,82,0.01,,---,0.01,VWS V14.01,2013-04-14 19:58:00,
2013-04-14 16:03:00,59.0,53.8,30.03,SW,220,0.0,5.0,83,0.01,,---,0.01,VWS V14.01,2013-04-14 20:03:00,
2013-04-14 16:08:00,59.0,54.2,30.03,WSW,237,0.0,2.0,84,0.01,,---,0.01,VWS V14.01,2013-04-14 20:08:00,
2013-04-14 16:13:00,59.1,54.0,30.03,WSW,241,1.0,3.0,83,0.01,,---,0.01,VWS V14.01,2013-04-14 20:13:00,
2013-04-14 16:18:00,59.2,54.0,30.02,WNW,301,1.0,4.0,83,0.01,,---,0.01,VWS V14.01,2013-04-14 20:18:00,
2013-04-14 16:23:00,59.0,54.2,30.02,SW,232,2.0,4.0,84,0.01,,---,0.01,VWS V14.01,2013-04-14 20:23:00,
2013-04-14 16:28:00,59.0,54.5,30.02,SW,236,1.0,4.0,85,0.01,,---,0.01,VWS V14.01,2013-04-14 20:28:00,
2013-04-14 16:33:00,59.0,54.5,30.01,SW,236,1.0,4.0,85,0.01,,---,0.01,VWS V14.01,2013-04-14 20:33:00,
2013-04-14 16:38:00,58.8,54.6,30.01,SE,134,4.0,7.0,86,0.00,,---,0.01,VWS V14.01,2013-04-14 20:38:00,
2013-04-14 16:43:00,58.5,54.3,30.00,SSE,159,0.0,7.0,86,0.00,,---,0.01,VWS V14.01,2013-04-14 20:43:00,
2013-04-14 16:48:00,58.4,54.9,30.00,SSE,159,0.0,7.0,88,0.00,,---,0.01,VWS V14.01,2013-04-14 20:48:00,
2013-04-14 16:53:00,58.4,54.5,30.00,SW,233,0.0,7.0,87,0.00,,---,0.01,VWS V14.01,2013-04-14 20:53:00,
2013-04-14 16:58:00,58.4,54.9,30.00,SW,234,1.0,7.0,88,0.00,,---,0.01,VWS V14.01,2013-04-14 20:58:00,
2013-04-14 17:03:00,58.4,54.5,30.00,SW,234,1.0,7.0,87,0.00,,---,0.01,VWS V14.01,2013-04-14 21:03:00,
2013-04-14 17:08:00,58.5,55.0,30.00,SW,234,0.0,1.0,88,0.01,,---,0.02,VWS V14.01,2013-04-14 21:08:00,
2013-04-14 17:13:00,58.4,54.2,29.99,North,5,0.0,1.0,86,0.01,,---,0.02,VWS V14.01,2013-04-14 21:13:00,
2013-04-14 17:18:00,58.4,54.5,29.99,North,5,0.0,1.0,87,0.01,,---,0.02,VWS V14.01,2013-04-14 21:18:00,
2013-04-14 17:23:00,58.3,54.8,29.99,North,5,0.0,1.0,88,0.01,,---,0.02,VWS V14.01,2013-04-14 21:23:00,
2013-04-14 17:28:00,58.3,54.8,29.99,North,360,1.0,1.0,88,0.01,,---,0.02,VWS V14.01,2013-04-14 21:28:00,
2013-04-14 17:33:00,58.2,54.7,29.99,North,360,0.0,1.0,88,0.01,,---,0.02,VWS V14.01,2013-04-14 21:33:00,
2013-04-14 17:38:00,58.1,54.6,29.98,North,360,0.0,0.0,88,0.01,,---,0.02,VWS V14.01,2013-04-14 21:38:00,
2013-04-14 17:43:00,58.1,54.9,29.98,North,360,0.0,1.0,89,0.01,,---,0.02,VWS V14.01,2013-04-14 21:43:00,
2013-04-14 17:48:00,58.2,55.0,29.98,North,5,0.0,1.0,89,0.01,,---,0.02,VWS V14.01,2013-04-14 21:48:00,
2013-04-14 17:53:00,58.2,55.0,29.98,North,360,0.0,1.0,89,0.01,,---,0.02,VWS V14.01,2013-04-14 21:53:00,
2013-04-14 17:58:00,58.1,54.9,29.99,North,5,1.0,1.0,89,0.01,,---,0.02,VWS V14.01,2013-04-14 21:58:00,
2013-04-14 18:03:00,57.9,55.0,29.99,North,360,0.0,1.0,90,0.01,,---,0.02,VWS V14.01,2013-04-14 22:03:00,
2013-04-14 18:08:00,57.8,54.9,29.99,North,5,0.0,0.0,90,0.00,,---,0.02,VWS V14.01,2013-04-14 22:08:00,
2013-04-14 18:13:00,57.6,54.7,29.99,North,5,0.0,0.0,90,0.01,,---,0.03,VWS V14.01,2013-04-14 22:13:00,
2013-04-14 18:18:00,57.4,54.8,29.98,North,360,0.0,1.0,91,0.01,,---,0.03,VWS V14.01,2013-04-14 22:18:00,
2013-04-14 18:23:00,57.2,54.6,29.98,North,5,0.0,1.0,91,0.01,,---,0.03,VWS V14.01,2013-04-14 22:23:00,
2013-04-14 18:28:00,57.2,54.6,29.98,North,5,0.0,1.0,91,0.01,,---,0.03,VWS V14.01,2013-04-14 22:28:00,
2013-04-14 18:33:00,57.2,54.9,29.98,North,5,1.0,2.0,92,0.01,,---,0.03,VWS V14.01,2013-04-14 22:33:00,
2013-04-14 18:38:00,57.3,55.0,29.98,North,5,0.0,1.0,92,0.01,,---,0.03,VWS V14.01,2013-04-14 22:38:00,
2013-04-14 18:43:00,57.4,55.1,29.99,North,5,0.0,1.0,92,0.01,,---,0.03,VWS V14.01,2013-04-14 22:43:00,
2013-04-14 18:48:00,57.5,55.2,29.99,North,5,0.0,1.0,92,0.01,,---,0.03,VWS V14.01,2013-04-14 22:48:00,
2013-04-14 18:53:00,57.4,55.1,29.99,North,360,0.0,1.0,92,0.02,,---,0.04,VWS V14.01,2013-04-14 22:53:00,
2013-04-14 18:58:00,57.1,54.8,29.99,North,5,0.0,1.0,92,0.02,,---,0.04,VWS V14.01,2013-04-14 22:58:00,
2013-04-14 19:03:00,56.9,54.6,29.99,North,5,0.0,1.0,92,0.02,,---,0.04,VWS V14.01,2013-04-14 23:03:00,
2013-04-14 19:08:00,56.8,54.5,30.00,North,5,0.0,0.0,92,0.02,,---,0.04,VWS V14.01,2013-04-14 23:08:00,
2013-04-14 19:13:00,56.7,54.4,29.98,North,5,0.0,0.0,92,0.02,,---,0.04,VWS V14.01,2013-04-14 23:13:00,
2013-04-14 19:18:00,56.6,54.6,29.98,North,360,0.0,1.0,93,0.02,,---,0.04,VWS V14.01,2013-04-14 23:18:00,
2013-04-14 19:23:00,56.4,54.4,29.98,North,5,0.0,1.0,93,0.02,,---,0.04,VWS V14.01,2013-04-14 23:23:00,
2013-04-14 19:28:00,56.4,54.4,29.98,North,5,0.0,1.0,93,0.02,,---,0.04,VWS V14.01,2013-04-14 23:28:00,
2013-04-14 19:33:00,56.4,54.4,29.98,North,5,0.0,1.0,93,0.02,,---,0.04,VWS V14.01,2013-04-14 23:33:00,
2013-04-14 19:38:00,56.4,54.4,29.98,North,5,0.0,1.0,93,0.01,,---,0.04,VWS V14.01,2013-04-14 23:38:00,
2013-04-14 19:43:00,56.3,54.3,29.99,North,360,0.0,1.0,93,0.01,,---,0.04,VWS V14.01,2013-04-14 23:43:00,
2013-04-14 19:48:00,56.3,54.3,29.99,North,5,0.0,1.0,93,0.01,,---,0.04,VWS V14.01,2013-04-14 23:48:00,
2013-04-14 19:53:00,56.2,54.5,30.00,North,5,0.0,1.0,94,0.01,,---,0.04,VWS V14.01,2013-04-14 23:53:00,
2013-04-14 19:58:00,56.2,54.5,29.99,North,5,0.0,1.0,94,0.01,,---,0.04,VWS V14.01,2013-04-14 23:58:00,
2013-04-14 20:03:00,56.1,54.4,29.99,North,5,1.0,1.0,94,0.01,,---,0.04,VWS V14.01,2013-04-15 00:03:00,
2013-04-14 20:08:00,56.1,54.4,29.99,North,360,0.0,1.0,94,0.00,,---,0.04,VWS V14.01,2013-04-15 00:08:00,
2013-04-14 20:13:00,56.0,54.3,29.98,North,360,1.0,1.0,94,0.00,,---,0.04,VWS V14.01,2013-04-15 00:13:00,
2013-04-14 20:18:00,56.0,54.3,29.96,West,271,3.0,3.0,94,0.00,,---,0.04,VWS V14.01,2013-04-15 00:18:00,
2013-04-14 20:23:00,56.0,54.3,29.97,West,261,1.0,3.0,94,0.00,,---,0.04,VWS V14.01,2013-04-15 00:23:00,
2013-04-14 20:28:00,55.9,54.2,29.97,West,261,1.0,3.0,94,0.00,,---,0.04,VWS V14.01,2013-04-15 00:28:00,
2013-04-14 20:33:00,55.8,54.1,29.97,West,263,0.0,3.0,94,0.00,,---,0.04,VWS V14.01,2013-04-15 00:33:00,
2013-04-14 20:38:00,55.7,54.0,29.98,SSW,209,1.0,4.0,94,0.00,,---,0.04,VWS V14.01,2013-04-15 00:38:00,
2013-04-14 20:43:00,55.6,53.9,29.97,WSW,254,3.0,4.0,94,0.00,,---,0.04,VWS V14.01,2013-04-15 00:43:00,
2013-04-14 20:48:00,55.5,53.5,29.97,West,262,1.0,4.0,93,0.00,,---,0.04,VWS V14.01,2013-04-15 00:48:00,
2013-04-14 20:53:00,55.4,53.4,29.98,WSW,247,3.0,4.0,93,0.00,,---,0.04,VWS V14.01,2013-04-15 00:53:00,
2013-04-14 20:58:00,55.3,53.3,29.98,WSW,245,1.0,4.0,93,0.00,,---,0.04,VWS V14.01,2013-04-15 00:58:00,
2013-04-14 21:03:00,55.3,53.3,29.98,WSW,246,0.0,4.0,93,0.00,,---,0.04,VWS V14.01,2013-04-15 01:03:00,
2013-04-14 21:08:00,55.2,53.2,29.98,WSW,246,1.0,1.0,93,0.00,,---,0.04,VWS V14.01,2013-04-15 01:08:00,
2013-04-14 21:13:00,55.2,53.2,29.98,WSW,245,0.0,1.0,93,0.00,,---,0.04,VWS V14.01,2013-04-15 01:13:00,
2013-04-14 21:18:00,55.1,53.4,29.99,WSW,245,1.0,1.0,94,0.00,,---,0.04,VWS V14.01,2013-04-15 01:18:00,
2013-04-14 21:23:00,55.1,53.4,29.99,WSW,245,0.0,1.0,94,0.00,,---,0.04,VWS V14.01,2013-04-15 01:23:00,
2013-04-14 21:28:00,55.0,53.3,29.99,WSW,246,1.0,1.0,94,0.00,,---,0.04,VWS V14.01,2013-04-15 01:28:00,
2013-04-14 21:33:00,54.9,53.2,29.99,WSW,246,0.0,1.0,94,0.00,,---,0.04,VWS V14.01,2013-04-15 01:33:00,
2013-04-14 21:38:00,54.9,53.2,29.99,WSW,246,0.0,0.0,94,0.00,,---,0.04,VWS V14.01,2013-04-15 01:38:00,
2013-04-14 21:43:00,54.9,53.2,29.99,WSW,246,0.0,0.0,94,0.00,,---,0.04,VWS V14.01,2013-04-15 01:43:00,
2013-04-14 21:48:00,54.8,53.4,29.99,WSW,246,0.0,0.0,95,0.00,,---,0.04,VWS V14.01,2013-04-15 01:48:00,
2013-04-14 21:53:00,54.8,53.4,29.99,WSW,245,0.0,0.0,95,0.00,,---,0.04,VWS V14.01,2013-04-15 01:53:00,
2013-04-14 21:58:00,54.9,53.5,29.99,WSW,246,0.0,1.0,95,0.00,,---,0.04,VWS V14.01,2013-04-15 01:58:00,
2013-04-14 22:03:00,54.9,53.5,29.99,WSW,245,0.0,1.0,95,0.00,,---,0.04,VWS V14.01,2013-04-15 02:03:00,
2013-04-14 22:08:00,54.9,53.5,29.98,WSW,246,0.0,1.0,95,0.00,,---,0.04,VWS V14.01,2013-04-15 02:08:00,
2013-04-14 22:13:00,54.9,53.5,29.99,WSW,246,0.0,1.0,95,0.00,,---,0.04,VWS V14.01,2013-04-15 02:13:00,
2013-04-14 22:18:00,54.9,53.5,29.99,WSW,246,0.0,1.0,95,0.00,,---,0.04,VWS V14.01,2013-04-15 02:18:00,
2013-04-14 22:23:00,54.9,53.5,29.98,WSW,246,0.0,1.0,95,0.00,,---,0.04,VWS V14.01,2013-04-15 02:23:00,
2013-04-14 22:28:00,54.9,53.5,29.98,WSW,246,0.0,1.0,95,0.00,,---,0.04,VWS V14.01,2013-04-15 02:28:00,
2013-04-14 22:33:00,54.9,53.5,29.98,WSW,246,0.0,1.0,95,0.00,,---,0.04,VWS V14.01,2013-04-15 02:33:00,
2013-04-14 22:38:00,54.9,53.5,29.98,WSW,246,0.0,0.0,95,0.00,,---,0.04,VWS V14.01,2013-04-15 02:38:00,
2013-04-14 22:43:00,54.9,53.5,29.98,WSW,246,0.0,0.0,95,0.00,,---,0.04,VWS V14.01,2013-04-15 02:43:00,
2013-04-14 22:48:00,54.9,53.5,29.98,WSW,246,0.0,0.0,95,0.00,,---,0.04,VWS V14.01,2013-04-15 02:48:00,
2013-04-14 22:53:00,54.9,53.5,29.98,WSW,246,0.0,0.0,95,0.00,,---,0.04,VWS V14.01,2013-04-15 02:53:00,
2013-04-14 22:58:00,54.8,53.4,29.98,WSW,246,0.0,0.0,95,0.00,,---,0.04,VWS V14.01,2013-04-15 02:58:00,
2013-04-14 23:03:00,54.8,53.4,29.98,WSW,246,0.0,0.0,95,0.00,,---,0.04,VWS V14.01,2013-04-15 03:03:00,
2013-04-14 23:08:00,54.8,53.4,29.98,WSW,246,0.0,0.0,95,0.00,,---,0.04,VWS V14.01,2013-04-15 03:08:00,
2013-04-14 23:13:00,54.8,53.4,29.97,WSW,245,0.0,1.0,95,0.00,,---,0.04,VWS V14.01,2013-04-15 03:13:00,
2013-04-14 23:18:00,54.8,53.4,29.97,WSW,245,0.0,1.0,95,0.00,,---,0.04,VWS V14.01,2013-04-15 03:18:00,
2013-04-14 23:23:00,54.8,53.4,29.97,WSW,246,0.0,1.0,95,0.00,,---,0.04,VWS V14.01,2013-04-15 03:23:00,
2013-04-14 23:28:00,54.8,53.4,29.97,WSW,246,0.0,1.0,95,0.00,,---,0.04,VWS V14.01,2013-04-15 03:28:00,
2013-04-14 23:33:00,54.8,53.4,29.98,WSW,246,0.0,1.0,95,0.00,,---,0.04,VWS V14.01,2013-04-15 03:33:00,
2013-04-14 23:38:00,54.9,53.5,29.98,WSW,246,1.0,1.0,95,0.00,,---,0.04,VWS V14.01,2013-04-15 03:38:00,
2013-04-14 23:43:00,54.8,53.4,29.97,WSW,245,0.0,2.0,95,0.00,,---,0.04,VWS V14.01,2013-04-15 03:43:00,
2013-04-14 23:48:00,54.8,53.4,29.98,WSW,246,0.0,2.0,95,0.00,,---,0.04,VWS V14.01,2013-04-15 03:48:00,
2013-04-14 23:53:00,54.8,53.4,29.98,WSW,246,0.0,2.0,95,0.00,,---,0.04,VWS V14.01,2013-04-15 03:53:00,
2013-04-14 23:58:00,54.8,53.4,29.97,WSW,246,0.0,2.0,95,0.00,,---,0.04,VWS V14.01,2013-04-15 03:58:00,